CZ-6A DEB, 61330

Orbit data source: Space-Track

CZ-6A DEB, 61330 is space debris in LEO originally from a launch on Tue, 06 Aug 2024 UTC launched from the Taiyaun Space Center, China (TSC). Debris objects in space refer to the collection of defunct objects orbiting the Earth. Examples of debris include non-operational satellites, rocket bodies, and fragments generated from explosions, collisions, or faulty payload assembly.

Loading next visibility...
Identifier
61330, 2024-140UT
Orbit
LEO
Country
Flag of CNCN / PRC
Related business
Manufacturer
SAST
Mission
Spacecraft
Bus & Motor
Unknown
Mass
Unknown
Launch date (UTC)
2024-08-06 (2 years ago)
Launch vehicle
Unknown
Launch site
Taiyaun Space Center, China (TSC)
Object type
Payload
Rocket body
Debris
Shape & HBR
Unknown shape, 0.1 m
Radar Cross Section
Small (<0.1 m²)

Expand to show TLE details & history
Last TLE update: 18 hours ago

TLE from 18 hours ago
0 CZ-6A DEB
1 61330U 24140UT  26171.24001003  .00000939  00000-0  22705-3 0  9991
2 61330  88.8542 258.2114 0075896 257.0568 102.2155 14.50539572 94865
Epoch: 2026-06-20T05:45Z
TLE epoch observation values (Epoch: 2026-06-20T05:45:36.866Z)
Latitude
-0.00007°
Longitude
-96.64969°
Altitude
738.78 km
Speed
7.479 km/s
True Right ascension
17h 12m 50s
True Declination
0° 00' 00"
Sunlit
Object was in full shadow at epoch
Visualization orbit readout
Latitude
Unknown
Longitude
Unknown
Altitude
Unknown
Speed
Unknown
Apparent Right ascension
Unknown
Apparent Declination
Unknown
Sunlit
N/A
Visualization observer readout
Local Sidereal Time
10:17:07
Azimuth
Unknown
Elevation
Unknown
Doppler factor
Unknown
Orbital elements
Apogee altitude
774.673 km
Perigee altitude
666.917 km
Semi-major axis
7,098.932 km
Eccentricity
0.00759
Inclination
88.8542°
RAAN
258.2114°
Arg. of periapsis
257.0568°
True anomaly
103.06378°
Mean anomaly
102.2155°
Eccentric anomaly
102.63981°
Mean motion
3.62872 °/min
Orbital period
99.21 mins
BSTAR
0.00022705
Loading maneuver chart data...
Computing Atmospheric mass density...
Loading historical data...
Loading historical data...
Loading historical data...
Loading historical data...
Loading historical data...
Loading historical data...
Loading historical data...

Documentation

Showing up to 5 results
|